Back to catalog

SL-16 DEB

AliveLEO
NORAD 22454·DEBRIS·🇷🇺 Russia

Launched Dec 25, 1992 from Baikonur Cosmodrome

Loading…

Next Passes (next 24 hours)

TLE

FreshSource: Space-Track

Epoch: Sep 13, 2026, 22:08 UTC

1 22454U 92093ET  26256.92227852  .00000178  00000-0  14509-3 0  9996
2 22454  70.9152 223.3584 0103310  39.6756 321.1857 14.00024624717391

Track SL-16 DEB in real time with AllMySat

Download on the App Store